This is the latest recevied weather packets stored in our database for station/object K4DFD-13. If no packets are shown the sender has not sent any weather packets the latest 10 day(s).
| Time | Temp. | Humidity | Pressure | Rain* | Wind** | Luminosity | Snow |
|---|---|---|---|---|---|---|---|
| 1777555508 | 12.78° C | 67% | 1012.5 hPa | 0 mm | - | - | - |
| 1777554907 | 12.78° C | 68% | 1012.4 hPa | 0 mm | - | - | - |
| 1777554607 | 12.78° C | 70% | 1012.3 hPa | 0 mm | - | - | - |
| 1777551903 | 11.67° C | 73% | 1012.9 hPa | 0 mm | - | - | - |
| 1777551002 | 11.67° C | 74% | 1012.8 hPa | 0 mm | - | - | - |
| 1777550101 | 11.67° C | 73% | 1012.5 hPa | 0 mm | - | - | - |
| 1777549199 | 11.67° C | 75% | 1012.5 hPa | 0 mm | - | - | - |
| 1777548899 | 11.67° C | 74% | 1012.2 hPa | 0 mm | - | - | - |
| 1777548298 | 11.67° C | 74% | 1011.8 hPa | 0 mm | - | - | - |
| 1777547997 | 11.67° C | 76% | 1011.9 hPa | 0 mm | - | - | - |
| 1777547397 | 11.67° C | 78% | 1011.8 hPa | 0 mm | - | - | - |
| 1777546796 | 11.11° C | 81% | 1011.5 hPa | 0 mm | - | - | - |
| 1777546195 | 11.11° C | 82% | 1011.3 hPa | 0 mm | - | - | - |
| 1777545293 | 11.67° C | 79% | 1011.1 hPa | 0 mm | - | - | - |
| 1777544993 | 11.67° C | 79% | 1011.1 hPa | 0 mm | - | - | - |
| 1777544693 | 11.67° C | 79% | 1011 hPa | 0 mm | - | - | - |
| 1777544392 | 11.67° C | 78% | 1011 hPa | 0 mm | - | - | - |
| 1777544092 | 11.67° C | 79% | 1010.6 hPa | 0 mm | - | - | - |
| 1777543792 | 11.67° C | 80% | 1010.4 hPa | 0 mm | - | - | - |
| 1777543191 | 11.67° C | 80% | 1010.2 hPa | 0 mm | - | - | - |
| 1777542290 | 11.67° C | 82% | 1010.6 hPa | 0 mm | - | - | - |
| 1777541989 | 11.67° C | 83% | 1010.4 hPa | 0 mm | - | - | - |
| 1777541689 | 12.22° C | 83% | 1010.4 hPa | 0 mm | - | - | - |
| 1777541389 | 12.22° C | 83% | 1010.4 hPa | 0 mm | - | - | - |
| 1777541088 | 12.22° C | 83% | 1010.2 hPa | 0 mm | - | - | - |
* Rain latest hour (hover to see other rain measurements)
** Current wind speed in m/s (hover to see current wind gust speed)